Flag for Isle of Man Weather past 2 weeks in Douglas, Isle of Man

Now
68 °F

Passing clouds.


Feels Like: 68 °F
Forecast: 61 / 71 °F
Wind: 3 mph from North

Location: Isle Of Man / Ronaldsway Airport

Current Time: Jul 22, 2014 at 11:24:27 PM

Latest Report: Jul 22, 2014 at 5:50 PM


Visibility: N/A

Pressure: 30.24 "Hg

Humidity: 73%

Dew point: 59 °F

Location of DouglasLocation

Historic Weather in Douglas — Graph

°F

Douglas temperature yesterday

Maximum temperature yesterday: 68 °F (at 11:20 AM)
Minimum temperature yesterday: 55 °F (at 1:50 AM)
Average temperature yesterday: 63 °F

Past Weeks' High & Low Weather Summary

 TemperatureHumidityPressure
High70 °F (Jul 10, 5:20 PM)100% (Jul 12, 9:20 AM)30.27 "Hg (Jul 12, 9:20 AM)
Low46 °F (Jul 8, 5:20 AM)35% (Jul 10, 2:50 PM)29.74 "Hg (Jul 12, 11:50 PM)
Average61 °F82%29.99 "Hg
* Reported Jul 7 5:20 PM — Jul 22 5:50 PM, Douglas, Weather by CustomWeather, © 2014

Note: Actual official high and low records may vary slightly from our data, if they occured in-between our weather recording intervals... More about our weather records

Advertising

Douglas weather history for previous 24 hours

 ConditionsComfort  
Time TempWeatherWind HumidityBarometerVisibility
5:50 PM
Jul 22
68 °FPassing clouds.3 mph73%30.24 "HgN/A
5:20 PM68 °FFog.6 mph78%30.24 "HgN/A
4:50 PM66 °FFog.6 mph78%30.24 "HgN/A
4:20 PM66 °FFog.8 mph83%30.24 "Hg6 mi
3:50 PM66 °FFog.8 mph83%30.24 "Hg5 mi
3:20 PM66 °FSleet. Fog.7 mph83%30.24 "Hg5 mi
2:50 PM68 °FFog.6 mph78%30.24 "HgN/A
2:20 PM68 °FSleet. Fog.6 mph73%30.24 "HgN/A
1:50 PM70 °FSleet. Fog.5 mph73%30.27 "HgN/A
1:20 PM66 °FSleet. Fog.5 mph83%30.27 "HgN/A
12:50 PM66 °FFog.5 mph83%30.27 "Hg5 mi
12:20 PM64 °FSleet. Fog.5 mph88%30.27 "Hg4 mi
11:50 AM64 °FFog.6 mph88%30.27 "Hg5 mi
11:20 AM64 °FSleet. Fog.6 mph88%30.24 "HgN/A
10:50 AM66 °FSleet. Fog.6 mph83%30.24 "HgN/A
10:20 AM64 °FFog.5 mph88%30.24 "Hg5 mi
9:50 AM63 °FFog.3 mph94%30.24 "Hg2 mi
9:20 AM61 °FFog.3 mph100%30.24 "Hg1 mi
8:50 AM61 °FFog.3 mph100%30.24 "Hg1 mi
8:20 AM61 °FFog.3 mph94%30.24 "Hg2 mi
7:50 AM59 °FFog.5 mph100%30.24 "Hg1 mi
7:20 AM59 °FFog.6 mph100%30.21 "Hg0 mi
6:50 AM61 °FFog.6 mph94%30.21 "Hg0 mi
6:20 AM59 °FFog.3 mph100%30.21 "Hg0 mi
5:50 AM59 °FFog.5 mph100%30.21 "Hg0 mi
5:20 AM59 °FFog.2 mph100%30.21 "Hg1 mi
2:50 AM61 °FPassing clouds.2 mph94%30.18 "HgN/A
1:50 AM59 °FPassing clouds.3 mph94%30.18 "HgN/A
12:50 AM61 °FPassing clouds.No wind94%30.18 "HgN/A
11:50 PM
Jul 21
61 °FPassing clouds.2 mph94%30.18 "HgN/A
Weather by CustomWeather, © 2014

See weather overviewHow to use our weather pages